STARLINK-2300

Last updated on April 24, 2021, 12:02 a.m. UTC

1 48027U 21024BC  21113.25001157 -.01098112  00000-0 -95061-2 0  9996
2 48027  53.0479  55.6636 0001238  71.5350 100.9335 15.71221565  1824

Satellite is not in orbit.